Regional Weather Roundup
Issued by NWS

Home | Current Version | Previous Version | Graphics & Text | Print | Product List | Glossary On
Versions: 1 2 3 4 5 6 7 8 9 10 11 12 13 14 15 16 17 18 19 20 21 22 23 24 25 26 27 28 29 30 31 32 33 34 35 36 37 38 39 40 41 42 43 44 45 46 47 48 49 50
905
ASUS43 KDMX 192306
RWRIA

WEATHER ROUNDUP FOR IOWA
NATIONAL WEATHER SERVICE DES MOINES IA
600 PM CDT SAT MAY 19 2018

NOTE: "FAIR" INDICATES FEW OR NO CLOUDS BELOW 12,000 FEET WITH NO
SIGNIFICANT WEATHER AND/OR OBSTRUCTIONS TO VISIBILITY.

* - THESE STATIONS ARE NOT NWS STATIONS...THUS NOT UNDER NWS
QUALITY CONTROL.  THEY ALSO DO NOT REPORT WEATHER SUCH
AS PRECIPITATION OR FOG.

IAZ001>003-012>014-020>022-031>034-043>046-200000-
   NORTHWEST IOWA

CITY           SKY/WX    TMP DP  RH WIND       PRES   REMARKS
CARROLL *      CLOUDY   N/A N/A N/A NE15      29.92S
CHEROKEE *     LGT RAIN  57  55  95 N8G23     29.95S
DENISON *      CLOUDY    63  57  82 N9        29.96R
LE MARS *      CLOUDY    57  55  94 N13       29.97F
ORANGE CITY *  RAIN      59  54  82 N14G20    29.97S
SHELDON *      CLOUDY    61  50  67 N17       29.97F
SIOUX CITY     CLOUDY    59  54  83 N10       29.98R
SPENCER        CLOUDY    62  50  64 N10       29.99S
STORM LAKE *   PTSUNNY   57  55  94 N22       29.92F
$$

IAZ055>058-069>071-079>083-090>094-200000-
   SOUTHWEST IOWA

CITY           SKY/WX    TMP DP  RH WIND       PRES   REMARKS
ATLANTIC *     PTSUNNY   66  59  77 N14       29.92R
AUDUBON *      PTSUNNY   64  59  82 N13       29.93R
CLARINDA *     SUNNY     75  59  57 NW9       29.92R
COUNCIL BLFS * CLOUDY    63  61  94 N9        29.95R
CRESTON *      MOSUNNY   70  63  78 N15       29.91R
HARLAN  *      CLOUDY    64  59  82 N12G17    29.97R
LAMONI         PTSUNNY   78  67  68 N12       29.86R HX  80
RED OAK *      CLOUDY    72  59  64 N13       29.92R
SHENANDOAH *   PTSUNNY   72  59  64 NW15      29.92R
$$

IAZ047>049-059>061-072>074-084-200000-
   CENTRAL IOWA

CITY           SKY/WX    TMP DP  RH WIND       PRES   REMARKS
AMES           CLOUDY    67  60  78 N18       29.90S
ANKENY *       CLOUDY    72  64  78 N12G18    29.89R
BOONE *        CLOUDY    64  59  82 NW18      29.90S
CHARITON *     CLOUDY    75  66  73 NE6       29.86R
DES MOINES     CLOUDY    72  63  73 N14       29.87R
GRINNELL*      PTSUNNY   72  63  72 N10G16    29.90R
KNOXVILLE *    CLOUDY    75  64  69 NE12      29.86R
MARSHALLTOWN   CLOUDY    67  66  97 E7        29.88R
NEWTON *       MOSUNNY   72  64  78 N12       29.87S
PELLA *        PTSUNNY   73  65  74 N7G16     29.88R
PERRY *        PTSUNNY   64  60  86 N22       29.90R
$$

IAZ004>006-015-016-023>025-035-036-200000-
   NORTH CENTRAL IOWA

CITY           SKY/WX    TMP DP  RH WIND       PRES   REMARKS
ALGONA *       CLOUDY    64  54  68 N14G21    29.97R
CLARION *      CLOUDY    70  52  52 NW13      29.94R
ESTHERVILLE    CLOUDY    60  51  72 N10       29.99R
FORT DODGE *   RAIN      62  56  80 N7        29.94F
MASON CITY     CLOUDY    71  58  63 N14       29.93R
FOREST CITY *  PTSUNNY   64  55  72 N16       29.94R
WEBSTER CITY * LGT RAIN  64  57  77 NW15      29.91S
IOWA FALLS *   RAIN      69  65  88 SW8       29.92S
$$

IAZ007>011-017>019-026>030-037>042-050>054-066-200000-
   NORTHEAST IOWA

CITY           SKY/WX    TMP DP  RH WIND       PRES   REMARKS
CEDAR RAPIDS   LGT RAIN  71  66  84 SW12      29.85S
CHARLES CITY * FAIR      73  57  56 N10       29.90R
CLINTON *        N/A     80  63  55 SE7       29.86S HX  81
DECORAH *      FAIR      73  61  64 N12       29.87S
DUBUQUE        FAIR      76  62  62 E7        29.87S
MONTICELLO *   PTSUNNY   77  61  57 S15G22    29.85S
OELWEIN *      CLOUDY    70  61  73 SW26G32   29.88R
WATERLOO       CLOUDY    67  64  90 SW8       29.90R
$$

IAZ064-065-067-068-078-200000-
   EAST CENTRAL IOWA

CITY           SKY/WX    TMP DP  RH WIND       PRES   REMARKS
DAVENPORT      PTSUNNY   79  57  46 S3        29.87S HX  80
IOWA CITY      PTSUNNY   74  66  76 W10       29.86F
MT. PLEASANT * CLOUDY    79  61  53 S9        29.86S HX  80
MUSCATINE *    FAIR      79  63  57 CALM      29.86R HX  80
QUAD CITIES    FAIR      81  59  47 S3        29.84R HX  81
$$

IAZ062-063-075>077-085>089-095>099-200000-
   SOUTHEAST IOWA

CITY           SKY/WX    TMP DP  RH WIND       PRES   REMARKS
BURLINGTON     CLOUDY    78  64  61 S3        29.87R HX  80
FAIRFIELD *    CLOUDY    73  63  68 NE8       29.85S
FORT MADISON * PTSUNNY   79  70  73 S3        29.88R HX  81
KEOKUK *       PTSUNNY   77  64  65 SE7       29.86R
OSKALOOSA *    FAIR      72  63  74 E10       29.86R
CENTERVILLE *    N/A     81  63  54 CALM      29.88R HX  82
OTTUMWA        CLOUDY    75  64  68 E8        29.85S
WASHINGTON *   CLOUDY    79  66  65 S7        29.86F HX  81
$$

ABBREVIATIONS USED IN REMARKS
   TC - TEMPERATURES IN CELSIUS
  WCI - WIND CHILL INDEX
   HX - HEAT INDEX
  VSB - VISIBILITY
$$





USA.gov is the U.S. government's official web portal to all federal, state and local government web resources and services.